When you browse on this site, cookies collect data to enhance your experience and personalize the content and advertising you see.
Visit our Privacy Policy to learn more. By continuing to use the site, you agree to this use of cookies and data.
  • In Lithuania
  • List of Countries
  • For 7 days
  • Water Temperature
  • Weather Map
  • Weather Widgets
  • user-avatar
    Login

    Hourly Weather Gedaref

    Today, 10 April, Friday

    Time Temperature Precipitation Wind Pressure Humidity
    00:00 +32°C° 0 mm 2 mps 708 mmHg 35%
    01:00 +31°C° 0 mm 2 mps 707 mmHg 37%
    02:00 +29°C° 0 mm 2 mps 707 mmHg 49%
    03:00 +29°C° 0 mm 2 mps 708 mmHg 49%
    04:00 +29°C° 0 mm 2 mps 708 mmHg 49%
    05:00 +28°C° 0 mm 2 mps 708 mmHg 48%
    06:00 +30°C° 0 mm 2 mps 709 mmHg 44%
    07:00 +33°C° 0 mm 3 mps 710 mmHg 40%
    08:00 +36°C° 0 mm 4 mps 710 mmHg 35%
    09:00 +38°C° 0 mm 3 mps 710 mmHg 30%
    10:00 +40°C° 0 mm 2 mps 710 mmHg 26%
    11:00 +42°C° 0 mm 2 mps 710 mmHg 21%
    12:00 +42°C° 0 mm 2 mps 709 mmHg 19%
    13:00 +43°C° 0 mm 2 mps 708 mmHg 17%
    14:00 +44°C° 0 mm 3 mps 707 mmHg 16%
    15:00 +44°C° 0 mm 3 mps 707 mmHg 16%
    16:00 +43°C° 0 mm 3 mps 707 mmHg 16%
    17:00 +43°C° 0 mm 4 mps 707 mmHg 16%
    18:00 +41°C° 0 mm 4 mps 708 mmHg 17%
    19:00 +39°C° 0 mm 5 mps 708 mmHg 18%
    20:00 +37°C° 0 mm 5 mps 708 mmHg 19%
    21:00 +36°C° 0 mm 5 mps 709 mmHg 19%
    22:00 +35°C° 0 mm 4 mps 709 mmHg 18%
    23:00 +34°C° 0 mm 3 mps 710 mmHg 18%

    Tomorrow, 11 April, Saturday

    Time Temperature Precipitation Wind Pressure Humidity
    00:00 +31°C° 0 mm 3 mps 710 mmHg 21%
    01:00 +30°C° 0 mm 3 mps 709 mmHg 24%
    02:00 +29°C° 0 mm 2 mps 709 mmHg 28%
    03:00 +28°C° 0 mm 2 mps 709 mmHg 32%
    04:00 +27°C° 0 mm 3 mps 709 mmHg 37%
    05:00 +26°C° 0 mm 3 mps 709 mmHg 42%
    06:00 +28°C° 0 mm 4 mps 710 mmHg 36%
    07:00 +30°C° 0 mm 5 mps 711 mmHg 30%
    08:00 +33°C° 0 mm 5 mps 712 mmHg 25%
    09:00 +35°C° 0 mm 6 mps 711 mmHg 21%
    10:00 +39°C° 0 mm 6 mps 711 mmHg 16%
    11:00 +41°C° 0 mm 6 mps 711 mmHg 12%
    12:00 +42°C° 0 mm 6 mps 710 mmHg 11%
    13:00 +44°C° 0 mm 6 mps 709 mmHg 10%
    14:00 +45°C° 0 mm 6 mps 708 mmHg 9%
    15:00 +45°C° 0 mm 6 mps 708 mmHg 10%
    16:00 +44°C° 0 mm 6 mps 707 mmHg 10%
    17:00 +42°C° 0 mm 6 mps 707 mmHg 10%
    18:00 +40°C° 0 mm 6 mps 707 mmHg 11%
    19:00 +37°C° 0 mm 5 mps 708 mmHg 13%
    20:00 +34°C° 0 mm 5 mps 708 mmHg 14%
    21:00 +34°C° 0 mm 5 mps 709 mmHg 14%
    22:00 +33°C° 0 mm 6 mps 709 mmHg 13%
    23:00 +32°C° 0 mm 7 mps 709 mmHg 13%

    Day after tomorrow, 12 April, Sunday

    Time Temperature Precipitation Wind Pressure Humidity
    00:00 +30°C° 0 mm 7 mps 709 mmHg 19%
    01:00 +29°C° 0 mm 7 mps 709 mmHg 26%
    02:00 +28°C° 0 mm 6 mps 709 mmHg 33%
    03:00 +27°C° 0 mm 6 mps 709 mmHg 36%
    04:00 +26°C° 0 mm 6 mps 709 mmHg 39%
    05:00 +25°C° 0 mm 5 mps 709 mmHg 42%
    06:00 +26°C° 0 mm 5 mps 710 mmHg 37%
    07:00 +28°C° 0 mm 6 mps 711 mmHg 32%
    08:00 +30°C° 0 mm 6 mps 712 mmHg 27%
    09:00 +34°C° 0 mm 6 mps 712 mmHg 23%
    10:00 +36°C° 0 mm 5 mps 712 mmHg 19%
    11:00 +40°C° 0 mm 5 mps 711 mmHg 14%
    12:00 +41°C° 0 mm 5 mps 711 mmHg 13%
    13:00 +42°C° 0 mm 5 mps 710 mmHg 11%
    14:00 +43°C° 0 mm 5 mps 709 mmHg 10%
    15:00 +43°C° 0 mm 5 mps 708 mmHg 10%
    16:00 +42°C° 0 mm 6 mps 708 mmHg 11%
    17:00 +43°C° 0 mm 7 mps 707 mmHg 11%
    18:00 +40°C° 0 mm 6 mps 708 mmHg 12%
    19:00 +36°C° 0 mm 6 mps 708 mmHg 13%
    20:00 +34°C° 0 mm 5 mps 709 mmHg 13%
    21:00 +33°C° 0 mm 6 mps 709 mmHg 12%
    22:00 +33°C° 0 mm 6 mps 709 mmHg 11%
    23:00 +32°C° 0 mm 7 mps 709 mmHg 10%

    13 April, Monday

    Time Temperature Precipitation Wind Pressure Humidity
    00:00 +30°C° 0 mm 7 mps 709 mmHg 11%
    01:00 +29°C° 0 mm 6 mps 709 mmHg 12%
    02:00 +28°C° 0 mm 6 mps 709 mmHg 13%
    03:00 +27°C° 0 mm 6 mps 709 mmHg 17%
    04:00 +26°C° 0 mm 5 mps 709 mmHg 22%
    05:00 +25°C° 0 mm 5 mps 709 mmHg 26%
    06:00 +27°C° 0 mm 5 mps 710 mmHg 25%
    07:00 +28°C° 0 mm 6 mps 711 mmHg 24%
    08:00 +29°C° 0 mm 6 mps 712 mmHg 24%
    09:00 +33°C° 0 mm 6 mps 711 mmHg 20%
    10:00 +36°C° 0 mm 5 mps 711 mmHg 17%
    11:00 +39°C° 0 mm 5 mps 711 mmHg 13%
    12:00 +40°C° 0 mm 5 mps 710 mmHg 12%
    13:00 +41°C° 0 mm 4 mps 709 mmHg 11%
    14:00 +42°C° 0 mm 4 mps 709 mmHg 10%
    15:00 +42°C° 0 mm 5 mps 708 mmHg 10%
    16:00 +42°C° 0 mm 5 mps 708 mmHg 10%
    17:00 +41°C° 0 mm 5 mps 707 mmHg 9%
    18:00 +39°C° 0 mm 5 mps 708 mmHg 10%
    19:00 +36°C° 0 mm 5 mps 708 mmHg 11%
    20:00 +33°C° 0 mm 4 mps 709 mmHg 11%
    21:00 +33°C° 0 mm 5 mps 709 mmHg 11%
    22:00 +32°C° 0 mm 5 mps 709 mmHg 10%
    23:00 +30°C° 0 mm 5 mps 709 mmHg 10%

    14 April, Tuesday

    Time Temperature Precipitation Wind Pressure Humidity
    00:00 +29°C° 0 mm 5 mps 709 mmHg 10%
    01:00 +29°C° 0 mm 5 mps 709 mmHg 10%
    02:00 +28°C° 0 mm 5 mps 709 mmHg 10%
    03:00 +27°C° 0 mm 5 mps 709 mmHg 15%
    04:00 +26°C° 0 mm 4 mps 709 mmHg 19%
    05:00 +25°C° 0 mm 4 mps 709 mmHg 24%
    06:00 +27°C° 0 mm 4 mps 710 mmHg 20%
    07:00 +29°C° 0 mm 5 mps 710 mmHg 17%
    08:00 +32°C° 0 mm 6 mps 711 mmHg 13%
    09:00 +34°C° 0 mm 5 mps 711 mmHg 11%
    10:00 +37°C° 0 mm 5 mps 711 mmHg 9%
    11:00 +40°C° 0 mm 4 mps 711 mmHg 8%
    12:00 +41°C° 0 mm 4 mps 710 mmHg 7%
    13:00 +42°C° 0 mm 5 mps 709 mmHg 7%
    14:00 +43°C° 0 mm 5 mps 708 mmHg 7%
    15:00 +42°C° 0 mm 5 mps 708 mmHg 7%
    16:00 +42°C° 0 mm 5 mps 708 mmHg 6%
    17:00 +41°C° 0 mm 6 mps 708 mmHg 6%
    18:00 +37°C° 0 mm 5 mps 708 mmHg 7%
    19:00 +35°C° 0 mm 5 mps 708 mmHg 7%
    20:00 +33°C° 0 mm 5 mps 709 mmHg 8%
    21:00 +32°C° 0 mm 5 mps 709 mmHg 8%
    22:00 +30°C° 0 mm 5 mps 709 mmHg 8%
    23:00 +29°C° 0 mm 5 mps 710 mmHg 7%

    15 April, Wednesday

    Time Temperature Precipitation Wind Pressure Humidity
    00:00 +28°C° 0 mm 4 mps 709 mmHg 8%
    01:00 +28°C° 0 mm 4 mps 709 mmHg 8%
    02:00 +27°C° 0 mm 4 mps 709 mmHg 8%
    03:00 +26°C° 0 mm 4 mps 709 mmHg 9%
    04:00 +25°C° 0 mm 4 mps 709 mmHg 10%
    05:00 +23°C° 0 mm 5 mps 710 mmHg 11%
    06:00 +26°C° 0 mm 5 mps 710 mmHg 10%
    07:00 +29°C° 0 mm 6 mps 711 mmHg 9%
    08:00 +32°C° 0 mm 6 mps 712 mmHg 9%
    09:00 +34°C° 0 mm 6 mps 711 mmHg 8%
    10:00 +36°C° 0 mm 5 mps 711 mmHg 7%
    11:00 +40°C° 0 mm 4 mps 711 mmHg 6%
    12:00 +41°C° 0 mm 4 mps 710 mmHg 5%
    13:00 +42°C° 0 mm 4 mps 710 mmHg 5%
    14:00 +43°C° 0 mm 4 mps 709 mmHg 4%
    15:00 +42°C° 0 mm 4 mps 709 mmHg 4%
    16:00 +42°C° 0 mm 4 mps 709 mmHg 4%
    17:00 +41°C° 0 mm 4 mps 708 mmHg 4%
    18:00 +37°C° 0 mm 4 mps 708 mmHg 5%
    19:00 +35°C° 0 mm 4 mps 708 mmHg 6%
    20:00 +32°C° 0 mm 4 mps 709 mmHg 6%
    21:00 +30°C° 0 mm 4 mps 709 mmHg 7%
    22:00 +29°C° 0 mm 4 mps 709 mmHg 8%
    23:00 +28°C° 0 mm 4 mps 709 mmHg 9%
    Show more